Pagina principale
METAR-TAF:

METAR-TAF

Aeroporti :

Seghedino, Ungheria

latitudine: 46-15N, longitudine: 020-06E, altezza: 82 m

Osservazione

Il bollettino è stato emesso 57 minuti fa, alle 19:45 UTC
Vento 6 kt da ovest/sud-ovest
Temperature 17°C
Umidità 72%
Pressione 1006 hPa
Visibilità 10 km o più
nessuna nube inferiore a 1500 m e nessun cumulonembo

METAR: LHUD 251945Z 25006KT CAVOK 17/12 Q1006

Ora: 22:42 (20:42 UTC)


TAF: mancante

Osservazioni e previsioni meteorologiche di più di 4000 aeroporti (messaggi METAR e TAF).

Le stazioni disponibili sono rappresentate dai dischi gialli e rossi sulla carta.

Puntare il mouse per vedere il nome della stazione.

Clicca sopra per visualizzare le osservazioni e previsioni meteorologiche.

Per cambiare la mappa : fare clic sui pulsanti verdi con una croce nera per ingrandire, il pulsante verde con un trattino per diminuire, o sulla freccia verde per le mappe adiacenti.


METAR-TAF: